Jackson, TN

9:37 PM CDT on May 27, 2017 (GMT -0500)
McKellar-Sipes Regional

Weather History for KMKL - February, 2014

Change the Weather History Date:

Saturday, February 15, 2014

  Actual Average Record
Temperature  
Mean Temperature 31 °F 42 °F  
Max Temperature 42 °F 53 °F 75 °F (2005)
Min Temperature 19 °F 32 °F 12 °F (1958)
Degree Days  
Heating Degree Days 34 23  
Month to date heating degree days 479 366  
Since 1 July heating degree days 3031 2615  
Cooling Degree Days 0 0  
Month to date cooling degree days 0 0  
Year to date cooling degree days 0 0  
Moisture  
Dew Point 19 °F    
Average Humidity 59    
Maximum Humidity 77    
Minimum Humidity 40    
Precipitation  
Precipitation 0.00 in 0.15 in 1.98 in (1990)
Month to date precipitation 4.91 2.25  
Year to date precipitation 7.92 6.32  
Snow  
Snow 0.00 in - - ()
Month to date snowfall 0.5  
Snow Depth 0.00 in    
Sea Level Pressure  
Sea Level Pressure 30.14 in    
Wind  
Wind Speed 5 mph (NNW)    
Max Wind Speed 20 mph    
Max Gust Speed 24 mph    
Visibility 10 miles    
Events      
T = Trace of Precipitation, MM = Missing Value Source: NWS Daily Summary

Daily Weather History Graph

Daily Weather History Graph

Search for Another Location

Airport or City:

Trip Planner

Search our weather history database for the weather conditions in past years. The results will help you decide how hot, cold, wet, or windy it might be!

Date:

Astronomy

Feb. 15, 2014 Rise Set
Actual Time 6:42 AM CST 5:37 PM CST
Civil Twilight 6:16 AM CST 6:03 PM CST
Nautical Twilight 5:46 AM CST 6:33 PM CST
Astronomical Twilight 5:16 AM CST 7:03 PM CST
Moon 6:33 PM CST (2/15) 6:44 AM CST (2/15)
Length of Visible Light 11h 47m
Length of Day
10h 55m
Waxing Gibbous, 99% of the Moon is Illuminated
Feb 15
Waxing Gibbous
Feb 22
Last Quarter
Mar 1
New
Mar 8
First Quarter
Mar 16
Full

Hourly Weather History & Observations

Time (CST) Temp. Windchill Dew Point Humidity Pressure Visibility Wind Dir Wind Speed Gust Speed Precip Events Conditions
12:53 AM 28.9 °F 18.2 °F 21.9 °F 75% 30.07 in 10.0 mi North 13.8 mph - N/A   Overcast
1:53 AM 28.9 °F 19.8 °F 21.0 °F 72% 30.08 in 10.0 mi North 10.4 mph - N/A   Overcast
2:53 AM 27.0 °F 15.2 °F 19.0 °F 72% 30.10 in 10.0 mi NNW 15.0 mph 20.7 mph N/A   Overcast
3:16 AM 24.8 °F 14.6 °F 15.8 °F 69% 30.10 in 10.0 mi NNW 10.4 mph - N/A   Scattered Clouds
3:53 AM 24.1 °F 15.2 °F 16.0 °F 71% 30.13 in 10.0 mi North 8.1 mph - N/A   Scattered Clouds
4:53 AM 23.0 °F 17.0 °F 15.1 °F 72% 30.13 in 10.0 mi North 4.6 mph - N/A   Clear
5:53 AM 21.0 °F 13.4 °F 14.0 °F 74% 30.16 in 10.0 mi NNE 5.8 mph - N/A   Clear
6:53 AM 19.0 °F 11.1 °F 14.0 °F 81% 30.16 in 10.0 mi NNE 5.8 mph - N/A   Clear
7:53 AM 24.1 °F 16.0 °F 17.1 °F 75% 30.19 in 10.0 mi NNE 6.9 mph - N/A   Clear
8:53 AM 25.0 °F 20.7 °F 17.1 °F 72% 30.23 in 10.0 mi WNW 3.5 mph - N/A   Clear
9:53 AM 28.0 °F 22.8 °F 19.0 °F 69% 30.25 in 10.0 mi NNW 4.6 mph - N/A   Clear
10:53 AM 30.9 °F - 19.0 °F 61% 30.22 in 10.0 mi Calm Calm - N/A   Clear
11:53 AM 34.0 °F 31.0 °F 19.9 °F 56% 30.22 in 10.0 mi North 3.5 mph - N/A   Clear
12:53 PM 35.1 °F 32.2 °F 18.0 °F 50% 30.18 in 10.0 mi Variable 3.5 mph - N/A   Clear
1:53 PM 37.9 °F 33.5 °F 19.9 °F 48% 30.15 in 10.0 mi SSW 5.8 mph - N/A   Partly Cloudy
2:53 PM 39.0 °F - 19.9 °F 46% 30.15 in 10.0 mi Calm Calm - N/A   Mostly Cloudy
3:53 PM 39.9 °F 37.8 °F 19.9 °F 45% 30.13 in 10.0 mi SSW 3.5 mph - N/A   Overcast
4:53 PM 39.9 °F - 18.0 °F 41% 30.12 in 10.0 mi Calm Calm - N/A   Clear
5:53 PM 37.9 °F - 18.0 °F 45% 30.12 in 10.0 mi Calm Calm - N/A   Clear
6:53 PM 35.1 °F 32.2 °F 18.0 °F 50% 30.09 in 10.0 mi SSE 3.5 mph - N/A   Clear
7:53 PM 37.9 °F - 19.9 °F 48% 30.09 in 10.0 mi Calm Calm - N/A   Scattered Clouds
8:53 PM 36.0 °F - 23.0 °F 59% 30.10 in 10.0 mi Calm Calm - N/A   Overcast
9:53 PM 37.0 °F 34.5 °F 23.0 °F 57% 30.09 in 10.0 mi South 3.5 mph - N/A   Overcast
10:53 PM 37.9 °F 33.5 °F 23.0 °F 55% 30.09 in 10.0 mi South 5.8 mph - N/A   Overcast
11:53 PM 37.0 °F 31.6 °F 24.1 °F 59% 30.06 in 10.0 mi South 6.9 mph - N/A   Overcast